Regional Weather Roundup
Issued by NWS Cleveland, OH

Home | Current Version | Previous Version | Text Only | Print | Product List | Glossary On
Versions: 1 2 3 4 5 6 7 8 9 10 11 12 13 14 15 16 17 18 19 20 21 22 23 24 25 26 27 28 29 30 31 32 33 34 35 36 37 38 39 40 41 42 43 44 45 46 47 48 49 50
000
ASUS41 KCLE 260512
RWRCLE
OHIO REGIONAL WEATHER ROUNDUP
NATIONAL WEATHER SERVICE WILMINGTON, OH
1200 AM EST SUN FEB 26 2017

NOTE: "FAIR" INDICATES FEW OR NO CLOUDS BELOW 12,000 FEET WITH NO
SIGNIFICANT WEATHER AND/OR OBSTRUCTIONS TO VISIBILITY.

OHZ001>008-015>018-024>027-034-035-043-044-260600-
   NORTHWEST OHIO

CITY           SKY/WX    TMP DP  RH WIND       PRES   REMARKS
DEFIANCE       CLOUDY    25  15  66 VRB6      30.02R WCI  18
FINDLAY        CLOUDY    27  18  69 W8        30.00R WCI  19
TOLEDO EXPRESS CLOUDY    25  16  68 W12G22    30.00R WCI  14
TOLEDO EXEC    FLURRIES  26  17  68 NW13      30.02R WCI  15
LIMA           CLOUDY    27  19  72 W12       30.01R WCI  17
$$

OHZ009>014-019>023-028>033-038-089-260600-
   NORTHEAST OHIO

CITY           SKY/WX    TMP DP  RH WIND       PRES   REMARKS
CLE-HOPKINS    LGT SNOW  27  19  72 W13       30.00R WCI  16
CLE-LAKEFRONT  FLURRIES  28  19  69 SW17      29.98R WCI  16
CUY CO. ARPT   NOT AVBL
LORAIN-ELYRIA  FLURRIES  25  19  78 W12       29.99S WCI  14
ASHTABULA      LGT SNOW  26  22  84 W14       29.95R FOG     WCI  14
AKRON-CANTON   FLURRIES  27  15  61 W14G21    29.96S WCI  16
WOOSTER        CLOUDY    26  18  71 W14       29.98S WCI  14
MANSFIELD      CLOUDY    25  14  63 W13G23    29.97R WCI  14
YOUNGSTOWN     LGT SNOW  25  19  78 W16       29.95R WCI  12
$$

OHZ042-051>053-060>062-070>072-077>081-260600-
  SOUTHWEST OHIO

CITY           SKY/WX    TMP DP  RH WIND       PRES   REMARKS
CINC-COVINGTON FAIR      28  17  63 SW6       30.06R WCI  22
CINC-LUNKEN    FAIR      27  19  72 SW7       30.10R WCI  19
HAMILTON       FAIR      27  18  69 W5        30.08S WCI  22
DAYTON         MOCLDY    28  19  69 W13       30.04R WCI  17
WRIGHT-PAT AFB CLOUDY    29  20  67 SW7       30.04R WCI  22
DAYTON GENERAL FAIR      28  18  66 SW7       30.04R WCI  21
WILMINGTON     FAIR      28  17  63 SW8       30.04R WCI  20
$$

OHZ036-037-039>041-045>050-054>059-063>069-073>076-082>088-260600-
  CENTRAL AND SOUTHEAST OHIO

CITY           SKY/WX    TMP DP  RH WIND       PRES   REMARKS
COLUMBUS       CLOUDY    32  17  54 W16       30.03R WCI  21
OSU AIRPORT    CLOUDY    29  19  66 W13       30.02S WCI  19
BOLTON FIELD   CLOUDY    30  19  64 W7        30.04S WCI  23
RICKENBACK AFB CLOUDY    30  20  66 W9        30.04S WCI  22
NEWARK         CLOUDY    30  17  58 W12G20    30.02R WCI  20
MARION         CLOUDY    27  19  72 NW9       30.00S WCI  18
LANCASTER      CLOUDY    31  21  66 W7        30.04R WCI  24
ZANESVILLE     CLOUDY    30  16  56 W10G20    30.03R WCI  21
NEW PHILLY     CLOUDY    28  17  63 W9G18     30.01S WCI  19
$$




USA.gov is the U.S. government's official web portal to all federal, state and local government web resources and services.